SAS684 LIMC-EKCH

Flight info

Callsign SAS684
Flight time 1h 44m
Altitude 36000
Route OSKOR DCT NESTI DCT TAGIP DCT BRENO DCT KONIN DCT EXITI DCT EMBOX/N0452F370 DCT NOBRI/N0451F360 M726 ROSOK Q296 MONAK
Aircraft A320/M-SDE3FGHIRWY/LB1

Departure

Time 2026-05-07 19:21
Airport Milan Malpensa International Airport (LIMC)

Arrival

Time 2026-05-07 21:05
Airport Copenhagen Kastrup Airport (EKCH)
Time Latitude Longitude Altitude Speed Heading
2026-05-07 18:53 45.62538 8.71606 753 ft 0 kts 169°
2026-05-07 19:08 45.62539 8.71605 753 ft 2 kts 169°
2026-05-07 19:09 45.62563 8.71599 753 ft 4 kts 168°
2026-05-07 19:09 45.62590 8.71590 753 ft 4 kts 161°
2026-05-07 19:09 45.62612 8.71573 751 ft 4 kts 128°
2026-05-07 19:09 45.62618 8.71560 753 ft 3 kts 103°
2026-05-07 19:10 45.62618 8.71597 753 ft 4 kts 84°
2026-05-07 19:10 45.62623 8.71635 753 ft 4 kts 78°
2026-05-07 19:10 45.62629 8.71672 753 ft 4 kts 78°
2026-05-07 19:10 45.62634 8.71709 751 ft 2 kts 79°
2026-05-07 19:11 45.62634 8.71712 753 ft 0 kts 79°
2026-05-07 19:13 45.62637 8.71734 753 ft 4 kts 79°
2026-05-07 19:13 45.62644 8.71789 750 ft 7 kts 79°
2026-05-07 19:13 45.62654 8.71861 752 ft 8 kts 79°
2026-05-07 19:14 45.62667 8.71956 752 ft 11 kts 79°
2026-05-07 19:14 45.62683 8.72075 752 ft 13 kts 81°
2026-05-07 19:14 45.62617 8.72151 749 ft 15 kts 167°
2026-05-07 19:14 45.62513 8.72180 750 ft 16 kts 169°
2026-05-07 19:15 45.62395 8.72212 748 ft 18 kts 169°
2026-05-07 19:15 45.62263 8.72248 752 ft 20 kts 170°
2026-05-07 19:15 45.62125 8.72287 752 ft 21 kts 168°
2026-05-07 19:15 45.61975 8.72329 751 ft 23 kts 169°
2026-05-07 19:16 45.61821 8.72371 752 ft 22 kts 168°
2026-05-07 19:16 45.61668 8.72414 752 ft 23 kts 170°
2026-05-07 19:16 45.61513 8.72459 750 ft 21 kts 166°
2026-05-07 19:16 45.61392 8.72490 751 ft 17 kts 171°
2026-05-07 19:17 45.61269 8.72524 749 ft 19 kts 169°
2026-05-07 19:17 45.61152 8.72555 748 ft 16 kts 168°
2026-05-07 19:17 45.61076 8.72648 750 ft 17 kts 88°
2026-05-07 19:17 45.61096 8.72837 748 ft 20 kts 78°
2026-05-07 19:18 45.61129 8.73031 750 ft 19 kts 62°
2026-05-07 19:18 45.61234 8.73146 751 ft 20 kts 34°
2026-05-07 19:18 45.61354 8.73259 751 ft 21 kts 26°
2026-05-07 19:18 45.61498 8.73241 752 ft 22 kts 349°
2026-05-07 19:19 45.61614 8.73256 750 ft 15 kts 64°
2026-05-07 19:19 45.61632 8.73393 751 ft 12 kts 83°
2026-05-07 19:19 45.61605 8.73496 749 ft 12 kts 116°
2026-05-07 19:19 45.61589 8.73627 747 ft 16 kts 84°
2026-05-07 19:20 45.61645 8.73727 744 ft 13 kts 358°
2026-05-07 19:20 45.61745 8.73702 745 ft 23 kts 349°
2026-05-07 19:20 45.62134 8.73595 744 ft 98 kts 349°
2026-05-07 19:20 45.63032 8.73346 741 ft 163 kts 348°
2026-05-07 19:21 45.64238 8.73029 1233 ft 176 kts 357°
2026-05-07 19:21 45.65432 8.73322 2034 ft 181 kts 29°
2026-05-07 19:21 45.66426 8.74577 2316 ft 201 kts 46°
2026-05-07 19:21 45.67428 8.76075 2760 ft 211 kts 46°
2026-05-07 19:22 45.68437 8.77585 3476 ft 210 kts 46°
2026-05-07 19:22 45.69463 8.79102 4110 ft 215 kts 47°
2026-05-07 19:22 45.70277 8.80991 4411 ft 237 kts 76°
2026-05-07 19:22 45.70245 8.83428 4731 ft 259 kts 105°
2026-05-07 19:23 45.69726 8.85958 5337 ft 269 kts 107°
2026-05-07 19:23 45.69172 8.88547 6123 ft 274 kts 107°
2026-05-07 19:23 45.68609 8.91161 6925 ft 278 kts 107°
2026-05-07 19:23 45.68038 8.93826 7712 ft 281 kts 107°
2026-05-07 19:24 45.67465 8.96520 8469 ft 285 kts 107°
2026-05-07 19:24 45.66893 8.99217 9203 ft 289 kts 107°
2026-05-07 19:24 45.66309 9.01983 9927 ft 292 kts 107°
2026-05-07 19:24 45.65712 9.04815 10396 ft 306 kts 107°
2026-05-07 19:25 45.65077 9.07828 10546 ft 329 kts 107°
2026-05-07 19:25 45.64392 9.11069 10726 ft 349 kts 107°
2026-05-07 19:25 45.63677 9.14446 11242 ft 357 kts 107°
2026-05-07 19:25 45.62958 9.17846 11864 ft 360 kts 107°
2026-05-07 19:26 45.62226 9.21296 12487 ft 363 kts 107°
2026-05-07 19:26 45.61487 9.24763 13093 ft 367 kts 107°
2026-05-07 19:26 45.60740 9.28267 13684 ft 370 kts 107°
2026-05-07 19:26 45.59986 9.31798 14275 ft 373 kts 107°
2026-05-07 19:27 45.59222 9.35361 14818 ft 377 kts 107°
2026-05-07 19:27 45.58457 9.38914 15351 ft 380 kts 107°
2026-05-07 19:27 45.57679 9.42530 15870 ft 384 kts 107°
2026-05-07 19:27 45.56909 9.46205 16399 ft 387 kts 104°
2026-05-07 19:28 45.56464 9.50004 16922 ft 390 kts 94°
2026-05-07 19:28 45.56490 9.53889 17442 ft 394 kts 84°
2026-05-07 19:28 45.56971 9.57738 17962 ft 396 kts 77°
2026-05-07 19:28 45.57566 9.61604 18494 ft 400 kts 77°
2026-05-07 19:29 45.58156 9.65491 19019 ft 403 kts 77°
2026-05-07 19:29 45.58743 9.69425 19551 ft 406 kts 78°
2026-05-07 19:29 45.59327 9.73387 20068 ft 410 kts 78°
2026-05-07 19:29 45.59914 9.77386 20566 ft 413 kts 78°
2026-05-07 19:30 45.60503 9.81416 21017 ft 416 kts 78°
2026-05-07 19:30 45.61097 9.85473 21462 ft 419 kts 78°
2026-05-07 19:30 45.61698 9.89563 21891 ft 422 kts 78°
2026-05-07 19:30 45.62304 9.93688 22298 ft 425 kts 78°
2026-05-07 19:31 45.62910 9.97825 22707 ft 427 kts 78°
2026-05-07 19:31 45.63518 10.02004 23091 ft 430 kts 78°
2026-05-07 19:31 45.64120 10.06144 23470 ft 432 kts 77°
2026-05-07 19:31 45.64986 10.10271 23833 ft 434 kts 68°
2026-05-07 19:32 45.66285 10.14166 24186 ft 436 kts 59°
2026-05-07 19:32 45.67969 10.17774 24528 ft 438 kts 53°
2026-05-07 19:32 45.69663 10.21138 24837 ft 441 kts 53°
2026-05-07 19:32 45.71453 10.24706 25167 ft 443 kts 53°
2026-05-07 19:33 45.73255 10.28308 25476 ft 446 kts 53°
2026-05-07 19:33 45.75062 10.31934 25784 ft 449 kts 53°
2026-05-07 19:33 45.76881 10.35590 26083 ft 451 kts 53°
2026-05-07 19:33 45.78705 10.39266 26386 ft 454 kts 53°
2026-05-07 19:34 45.80538 10.42966 26680 ft 457 kts 53°
2026-05-07 19:34 45.82382 10.46690 26962 ft 460 kts 53°
2026-05-07 19:34 45.84234 10.50435 27242 ft 463 kts 53°
2026-05-07 19:34 45.86103 10.54218 27568 ft 463 kts 53°
2026-05-07 19:35 45.87957 10.57980 27936 ft 463 kts 53°
2026-05-07 19:35 45.89813 10.61756 28338 ft 463 kts 53°
2026-05-07 19:35 45.91795 10.65340 28710 ft 462 kts 45°
2026-05-07 19:35 45.94131 10.68468 29047 ft 461 kts 36°
2026-05-07 19:36 45.96808 10.71066 29426 ft 457 kts 26°
2026-05-07 19:36 45.99661 10.73050 29780 ft 455 kts 20°
2026-05-07 19:36 46.02554 10.74895 30157 ft 454 kts 20°
2026-05-07 19:36 46.05431 10.76744 30556 ft 453 kts 21°
2026-05-07 19:37 46.08298 10.78599 30954 ft 452 kts 21°
2026-05-07 19:37 46.11169 10.80466 31332 ft 452 kts 21°
2026-05-07 19:37 46.14033 10.82328 31731 ft 451 kts 21°
2026-05-07 19:37 46.16856 10.84165 32107 ft 451 kts 21°
2026-05-07 19:38 46.19712 10.86022 32501 ft 450 kts 21°
2026-05-07 19:38 46.22564 10.87871 32870 ft 449 kts 21°
2026-05-07 19:38 46.25420 10.89721 33240 ft 449 kts 21°
2026-05-07 19:38 46.28265 10.91574 33588 ft 449 kts 21°
2026-05-07 19:39 46.31110 10.93431 33913 ft 449 kts 21°
2026-05-07 19:39 46.33955 10.95289 34248 ft 448 kts 21°
2026-05-07 19:39 46.36793 10.97143 34560 ft 448 kts 21°
2026-05-07 19:39 46.38718 10.98401 34760 ft 448 kts 21°
2026-05-07 19:40 46.42484 11.00866 35081 ft 449 kts 21°
2026-05-07 19:40 46.45330 11.02728 35345 ft 449 kts 21°
2026-05-07 19:40 46.48171 11.04590 35603 ft 449 kts 21°
2026-05-07 19:40 46.51021 11.06466 35856 ft 449 kts 22°
2026-05-07 19:41 46.53873 11.08347 35985 ft 451 kts 22°
2026-05-07 19:41 46.56744 11.10237 36005 ft 457 kts 22°
2026-05-07 19:41 46.62601 11.14093 35997 ft 465 kts 22°
2026-05-07 19:42 46.67497 11.17334 36010 ft 466 kts 22°
2026-05-07 19:42 46.73387 11.21248 36013 ft 465 kts 22°
2026-05-07 19:43 46.79274 11.25161 36023 ft 465 kts 22°
2026-05-07 19:43 46.85167 11.29080 36027 ft 465 kts 22°
2026-05-07 19:44 46.91049 11.33004 36040 ft 465 kts 22°
2026-05-07 19:44 46.97044 11.36551 36056 ft 462 kts 12°
2026-05-07 19:45 47.03361 11.37625 36064 ft 456 kts 357°
2026-05-07 19:45 47.09701 11.37548 36070 ft 456 kts 357°
2026-05-07 19:46 47.16037 11.37486 36082 ft 456 kts 357°
2026-05-07 19:46 47.22417 11.37424 36087 ft 456 kts 357°
2026-05-07 19:47 47.28762 11.37357 36093 ft 457 kts 357°
2026-05-07 19:47 47.35077 11.37291 36098 ft 457 kts 357°
2026-05-07 19:48 47.41444 11.37238 36097 ft 457 kts 357°
2026-05-07 19:48 47.47794 11.37182 36098 ft 457 kts 357°
2026-05-07 19:49 47.54159 11.37118 36097 ft 457 kts 357°
2026-05-07 19:49 47.60519 11.37048 36101 ft 457 kts 357°
2026-05-07 19:50 47.66904 11.36980 36100 ft 457 kts 357°
2026-05-07 19:50 47.73228 11.36930 36096 ft 456 kts 357°
2026-05-07 19:51 47.79577 11.36872 36098 ft 456 kts 357°
2026-05-07 19:51 47.85932 11.36807 36099 ft 456 kts 358°
2026-05-07 19:52 47.92287 11.36866 36098 ft 457 kts 359°
2026-05-07 19:52 47.98616 11.37052 36094 ft 458 kts 359°
2026-05-07 19:53 48.05016 11.37237 36095 ft 458 kts 359°
2026-05-07 19:53 48.11372 11.37381 36094 ft 458 kts 359°
2026-05-07 19:54 48.17757 11.37522 36095 ft 459 kts 359°
2026-05-07 19:54 48.24140 11.37663 36098 ft 458 kts 359°
2026-05-07 19:55 48.30516 11.37803 36091 ft 459 kts 359°
2026-05-07 19:55 48.36901 11.37949 36095 ft 458 kts 359°
2026-05-07 19:56 48.43276 11.38096 36097 ft 458 kts 359°
2026-05-07 19:56 48.49661 11.38239 36097 ft 458 kts 359°
2026-05-07 19:57 48.56040 11.38387 36098 ft 458 kts 359°
2026-05-07 19:57 48.62416 11.38532 36099 ft 458 kts 359°
2026-05-07 19:58 48.68790 11.38676 36099 ft 458 kts 359°
2026-05-07 19:58 48.75169 11.38821 36100 ft 458 kts 359°
2026-05-07 19:59 48.81546 11.38977 36100 ft 458 kts 359°
2026-05-07 19:59 48.87918 11.39124 36095 ft 458 kts 359°
2026-05-07 20:00 48.94291 11.39260 36098 ft 458 kts 359°
2026-05-07 20:00 49.00658 11.39411 36099 ft 458 kts 359°
2026-05-07 20:01 49.07036 11.39563 36099 ft 458 kts 359°
2026-05-07 20:01 49.13405 11.39705 36096 ft 458 kts 359°
2026-05-07 20:02 49.19781 11.39845 36092 ft 458 kts 359°
2026-05-07 20:02 49.26111 11.39993 36096 ft 458 kts 359°
2026-05-07 20:03 49.32475 11.40155 36097 ft 457 kts 360°
2026-05-07 20:03 49.38836 11.40315 36095 ft 457 kts 360°
2026-05-07 20:04 49.45188 11.40464 36094 ft 457 kts 359°
2026-05-07 20:04 49.51543 11.40597 36093 ft 457 kts 360°
2026-05-07 20:05 49.57895 11.40732 36092 ft 456 kts 359°
2026-05-07 20:05 49.64250 11.40651 36090 ft 456 kts 358°
2026-05-07 20:06 49.70600 11.40434 36084 ft 456 kts 357°
2026-05-07 20:06 49.76947 11.40242 36081 ft 456 kts 358°
2026-05-07 20:07 49.83302 11.40110 36081 ft 457 kts 358°
2026-05-07 20:07 49.89610 11.39991 36082 ft 456 kts 358°
2026-05-07 20:08 49.95962 11.39854 36081 ft 456 kts 358°
2026-05-07 20:08 50.02307 11.39704 36081 ft 456 kts 358°
2026-05-07 20:09 50.08654 11.39558 36084 ft 456 kts 358°
2026-05-07 20:10 50.18222 11.39347 36086 ft 456 kts 358°
2026-05-07 20:10 50.24535 11.39212 36089 ft 456 kts 358°
2026-05-07 20:11 50.30886 11.39060 36094 ft 456 kts 358°
2026-05-07 20:11 50.37234 11.38917 36098 ft 456 kts 358°
2026-05-07 20:12 50.43585 11.38781 36100 ft 456 kts 358°
2026-05-07 20:12 50.49929 11.38641 36104 ft 456 kts 358°
2026-05-07 20:13 50.56277 11.38492 36105 ft 456 kts 358°
2026-05-07 20:13 50.62620 11.38328 36107 ft 456 kts 358°
2026-05-07 20:14 50.68944 11.38183 36099 ft 453 kts 358°
2026-05-07 20:14 50.75222 11.38042 36101 ft 454 kts 358°
2026-05-07 20:15 50.81544 11.37889 36101 ft 454 kts 358°
2026-05-07 20:15 50.87862 11.37732 36110 ft 454 kts 358°
2026-05-07 20:16 50.94180 11.37595 36109 ft 454 kts 358°
2026-05-07 20:16 51.00496 11.37452 36113 ft 454 kts 358°
2026-05-07 20:17 51.06817 11.37299 36114 ft 454 kts 358°
2026-05-07 20:17 51.13142 11.37144 36116 ft 455 kts 358°
2026-05-07 20:18 51.19472 11.36998 36120 ft 455 kts 358°
2026-05-07 20:18 51.25809 11.36845 36129 ft 455 kts 358°
2026-05-07 20:19 51.32142 11.36697 36123 ft 455 kts 358°
2026-05-07 20:19 51.38484 11.36552 36131 ft 456 kts 358°
2026-05-07 20:20 51.44821 11.36403 36132 ft 455 kts 358°
2026-05-07 20:20 51.51120 11.36257 36127 ft 455 kts 359°
2026-05-07 20:21 51.57459 11.36107 36126 ft 455 kts 358°
2026-05-07 20:21 51.63799 11.35955 36131 ft 455 kts 358°
2026-05-07 20:22 51.70121 11.35787 36128 ft 455 kts 358°
2026-05-07 20:22 51.76456 11.35639 36121 ft 455 kts 359°
2026-05-07 20:23 51.82790 11.35499 36123 ft 455 kts 358°
2026-05-07 20:23 51.89137 11.35344 36115 ft 455 kts 358°
2026-05-07 20:24 51.95433 11.35195 36122 ft 455 kts 359°
2026-05-07 20:24 52.01767 11.35070 36119 ft 455 kts 359°
2026-05-07 20:25 52.08094 11.35445 36387 ft 455 kts
2026-05-07 20:25 52.11240 11.36052 36650 ft 455 kts
2026-05-07 20:25 52.14378 11.36667 36891 ft 454 kts
2026-05-07 20:25 52.17522 11.37283 37084 ft 454 kts
2026-05-07 20:26 52.20645 11.37896 37120 ft 452 kts
2026-05-07 20:26 52.26859 11.39126 37118 ft 449 kts
2026-05-07 20:27 52.33064 11.40377 37118 ft 449 kts
2026-05-07 20:27 52.38217 11.41404 37122 ft 448 kts
2026-05-07 20:28 52.44415 11.42645 37122 ft 448 kts
2026-05-07 20:28 52.50607 11.43883 37119 ft 449 kts
2026-05-07 20:29 52.56808 11.45124 37121 ft 449 kts
2026-05-07 20:29 52.63009 11.46375 37129 ft 449 kts
2026-05-07 20:30 52.69175 11.47623 37133 ft 449 kts
2026-05-07 20:30 52.75373 11.48881 37135 ft 449 kts
2026-05-07 20:31 52.81568 11.50153 37139 ft 448 kts
2026-05-07 20:31 52.87767 11.51398 37139 ft 448 kts
2026-05-07 20:32 52.93955 11.52657 37147 ft 449 kts
2026-05-07 20:32 53.00158 11.53935 37152 ft 449 kts
2026-05-07 20:33 53.06353 11.55218 37155 ft 448 kts
2026-05-07 20:33 53.12504 11.56486 37154 ft 448 kts
2026-05-07 20:34 53.18741 11.57786 37159 ft 448 kts
2026-05-07 20:34 53.24923 11.59152 36868 ft 447 kts 11°
2026-05-07 20:34 53.27927 11.60481 36621 ft 446 kts 16°
2026-05-07 20:35 53.30897 11.61964 36372 ft 445 kts 16°
2026-05-07 20:35 53.33863 11.63442 36152 ft 445 kts 16°
2026-05-07 20:35 53.36840 11.64920 36144 ft 446 kts 16°
2026-05-07 20:36 53.42829 11.67887 36147 ft 451 kts 16°
2026-05-07 20:36 53.48824 11.70877 36146 ft 453 kts 16°
2026-05-07 20:37 53.54859 11.73909 36145 ft 452 kts 16°
2026-05-07 20:37 53.60883 11.76948 36146 ft 452 kts 17°
2026-05-07 20:38 53.66923 11.79990 36146 ft 452 kts 16°
2026-05-07 20:38 53.72954 11.83033 36145 ft 452 kts 17°
2026-05-07 20:39 53.78990 11.86093 36146 ft 452 kts 17°
2026-05-07 20:39 53.84988 11.89145 36148 ft 452 kts 17°
2026-05-07 20:40 53.91015 11.92211 35578 ft 452 kts 17°
2026-05-07 20:40 53.94046 11.93761 34741 ft 456 kts 17°
2026-05-07 20:40 53.97095 11.95325 33897 ft 459 kts 17°
2026-05-07 20:40 54.00160 11.96903 32965 ft 462 kts 17°
2026-05-07 20:41 54.03252 11.98499 31987 ft 465 kts 17°
2026-05-07 20:41 54.06356 12.00100 31070 ft 466 kts 17°
2026-05-07 20:41 54.09466 12.01702 30016 ft 469 kts 17°
2026-05-07 20:41 54.12591 12.03308 29113 ft 469 kts 16°
2026-05-07 20:42 54.15688 12.04902 28539 ft 461 kts 17°
2026-05-07 20:42 54.18744 12.06481 27863 ft 456 kts 17°
2026-05-07 20:42 54.21767 12.08046 27204 ft 452 kts 17°
2026-05-07 20:42 54.24762 12.09601 26564 ft 447 kts 17°
2026-05-07 20:43 54.27721 12.11139 25917 ft 442 kts 16°
2026-05-07 20:43 54.30653 12.12665 25279 ft 438 kts 16°
2026-05-07 20:43 54.33557 12.14182 24640 ft 434 kts 16°
2026-05-07 20:43 54.36430 12.15690 24019 ft 430 kts 16°
2026-05-07 20:44 54.39282 12.17186 23403 ft 426 kts 16°
2026-05-07 20:44 54.42109 12.18668 22791 ft 422 kts 16°
2026-05-07 20:44 54.44902 12.20131 22209 ft 418 kts 16°
2026-05-07 20:44 54.47673 12.21584 21643 ft 414 kts 16°
2026-05-07 20:45 54.50413 12.23026 21099 ft 410 kts 16°
2026-05-07 20:45 54.53133 12.24460 20583 ft 407 kts 17°
2026-05-07 20:45 54.55830 12.25888 20058 ft 403 kts 17°
2026-05-07 20:45 54.58504 12.27300 19553 ft 400 kts 17°
2026-05-07 20:46 54.61197 12.28432 19046 ft 397 kts
2026-05-07 20:46 54.63944 12.28819 18526 ft 395 kts
2026-05-07 20:46 54.66679 12.29039 18004 ft 392 kts
2026-05-07 20:46 54.69395 12.29255 17465 ft 390 kts
2026-05-07 20:47 54.72057 12.29472 16935 ft 387 kts
2026-05-07 20:47 54.74738 12.29697 16374 ft 384 kts
2026-05-07 20:47 54.77399 12.29924 15817 ft 381 kts
2026-05-07 20:47 54.80044 12.30151 15248 ft 378 kts
2026-05-07 20:48 54.82664 12.30372 14677 ft 375 kts
2026-05-07 20:48 54.85256 12.30583 14106 ft 372 kts
2026-05-07 20:48 54.87828 12.30782 13607 ft 367 kts
2026-05-07 20:48 54.90347 12.30989 13355 ft 359 kts
2026-05-07 20:49 54.92821 12.31436 13168 ft 357 kts 11°
2026-05-07 20:49 54.95195 12.32686 13160 ft 357 kts 22°
2026-05-07 20:49 54.97394 12.34688 13165 ft 357 kts 33°
2026-05-07 20:49 54.99460 12.37100 13131 ft 358 kts 33°
2026-05-07 20:50 55.01518 12.39511 12763 ft 352 kts 33°
2026-05-07 20:50 55.03546 12.41881 12129 ft 352 kts 33°
2026-05-07 20:50 55.05573 12.44249 11568 ft 350 kts 33°
2026-05-07 20:50 55.07589 12.46599 11025 ft 347 kts 33°
2026-05-07 20:51 55.09575 12.48913 10774 ft 336 kts 33°
2026-05-07 20:51 55.11477 12.51134 10643 ft 322 kts 34°
2026-05-07 20:51 55.13302 12.53272 10514 ft 309 kts 34°
2026-05-07 20:51 55.15009 12.55277 10252 ft 294 kts 34°
2026-05-07 20:52 55.16690 12.57252 10048 ft 287 kts 34°
2026-05-07 20:52 55.18355 12.59215 9921 ft 284 kts 34°
2026-05-07 20:52 55.19992 12.61147 9796 ft 284 kts 34°
2026-05-07 20:52 55.21633 12.63084 9500 ft 283 kts 34°
2026-05-07 20:53 55.23247 12.64969 9143 ft 283 kts 31°
2026-05-07 20:53 55.24986 12.66653 8833 ft 280 kts 29°
2026-05-07 20:53 55.26662 12.68267 8554 ft 278 kts 29°
2026-05-07 20:53 55.28350 12.69900 8261 ft 276 kts 29°
2026-05-07 20:54 55.30030 12.71530 7972 ft 275 kts 29°
2026-05-07 20:54 55.31696 12.73146 7675 ft 273 kts 29°
2026-05-07 20:54 55.33454 12.74346 7389 ft 271 kts
2026-05-07 20:54 55.35325 12.74225 7101 ft 271 kts 345°
2026-05-07 20:55 55.37005 12.72787 6788 ft 270 kts 322°
2026-05-07 20:55 55.38269 12.70351 6488 ft 271 kts 309°
2026-05-07 20:55 55.39437 12.67751 6181 ft 269 kts 309°
2026-05-07 20:55 55.40596 12.65170 5878 ft 268 kts 309°
2026-05-07 20:56 55.41727 12.62570 5573 ft 267 kts 303°
2026-05-07 20:56 55.42336 12.59512 5229 ft 268 kts 275°
2026-05-07 20:56 55.42074 12.56268 4739 ft 275 kts 247°
2026-05-07 20:56 55.40938 12.53594 4469 ft 272 kts 222°
2026-05-07 20:57 55.39549 12.51443 4228 ft 268 kts 221°
2026-05-07 20:57 55.38151 12.49301 4048 ft 266 kts 221°
2026-05-07 20:57 55.36749 12.47164 4032 ft 267 kts 221°
2026-05-07 20:57 55.35343 12.45013 4036 ft 267 kts 224°
2026-05-07 20:58 55.34259 12.42402 4034 ft 265 kts 248°
2026-05-07 20:58 55.33873 12.39352 3961 ft 252 kts 272°
2026-05-07 20:58 55.34203 12.36418 3832 ft 240 kts 295°
2026-05-07 20:58 55.35100 12.34057 3712 ft 228 kts 316°
2026-05-07 20:59 55.36378 12.32541 3572 ft 217 kts 340°
2026-05-07 20:59 55.37819 12.32168 3457 ft 206 kts
2026-05-07 20:59 55.39168 12.32926 3332 ft 205 kts 30°
2026-05-07 20:59 55.40387 12.34242 3205 ft 206 kts 31°
2026-05-07 21:00 55.41605 12.35562 3089 ft 205 kts 31°
2026-05-07 21:00 55.42820 12.36881 2952 ft 205 kts 31°
2026-05-07 21:00 55.44028 12.38192 2831 ft 201 kts 31°
2026-05-07 21:00 55.45183 12.39443 2745 ft 189 kts 31°
2026-05-07 21:01 55.46276 12.40630 2628 ft 179 kts 31°
2026-05-07 21:01 55.47252 12.41939 2548 ft 176 kts 41°
2026-05-07 21:01 55.48175 12.43366 2526 ft 177 kts 40°
2026-05-07 21:01 55.49109 12.44794 2540 ft 178 kts 40°
2026-05-07 21:02 55.50043 12.46221 2540 ft 178 kts 40°
2026-05-07 21:02 55.50983 12.47663 2264 ft 179 kts 40°
2026-05-07 21:02 55.51918 12.49100 1975 ft 178 kts 41°
2026-05-07 21:02 55.52829 12.50499 1730 ft 168 kts 42°
2026-05-07 21:03 55.53676 12.51798 1527 ft 154 kts 42°
2026-05-07 21:03 55.54455 12.52996 1342 ft 144 kts 40°
2026-05-07 21:03 55.55192 12.54129 1148 ft 141 kts 40°
2026-05-07 21:03 55.55926 12.55260 955 ft 139 kts 41°
2026-05-07 21:04 55.56654 12.56384 757 ft 138 kts 40°
2026-05-07 21:04 55.57378 12.57504 574 ft 138 kts 41°
2026-05-07 21:04 55.58104 12.58620 362 ft 138 kts 40°
2026-05-07 21:04 55.58825 12.59731 170 ft 137 kts 41°
2026-05-07 21:05 55.59543 12.60854 29 ft 135 kts 41°
2026-05-07 21:05 55.60154 12.61793 20 ft 94 kts 40°
2026-05-07 21:05 55.60520 12.62361 21 ft 53 kts 41°
2026-05-07 21:05 55.60766 12.62736 19 ft 39 kts 37°
2026-05-07 21:06 55.60974 12.62864 17 ft 28 kts 12°
2026-05-07 21:06 55.61154 12.62962 17 ft 26 kts 37°
2026-05-07 21:06 55.61291 12.63176 17 ft 25 kts 41°
2026-05-07 21:06 55.61410 12.63362 19 ft 20 kts 42°
2026-05-07 21:07 55.61520 12.63533 18 ft 22 kts 41°
2026-05-07 21:07 55.61636 12.63713 18 ft 22 kts 41°
2026-05-07 21:07 55.61741 12.63875 17 ft 19 kts 41°
2026-05-07 21:07 55.61844 12.64031 18 ft 20 kts 39°
2026-05-07 21:08 55.61970 12.64154 17 ft 22 kts 25°
2026-05-07 21:08 55.62103 12.64267 18 ft 21 kts 26°
2026-05-07 21:08 55.62230 12.64372 15 ft 15 kts 22°
2026-05-07 21:08 55.62339 12.64427 18 ft 17 kts 14°
2026-05-07 21:09 55.62441 12.64406 17 ft 16 kts 314°
2026-05-07 21:09 55.62512 12.64236 17 ft 17 kts 313°
2026-05-07 21:09 55.62594 12.64256 19 ft 10 kts 29°
2026-05-07 21:09 55.62664 12.64315 17 ft 12 kts 22°
2026-05-07 21:10 55.62675 12.64392 19 ft 5 kts 99°
2026-05-07 21:10 55.62671 12.64426 17 ft 2 kts 101°
2026-05-07 21:10 55.62670 12.64435 17 ft 0 kts 101°